Overview Statistics Trail Chart Weather Telemetry Raw packets
 

This is the latest recevied weather packets stored in our database for station/object W6MAF. If no packets are shown the sender has not sent any weather packets the latest 10 day(s).

<< 1 2 3 4 5 6 >>
Time Temp. Humidity Pressure Rain* Wind** Luminosity Snow
1788668794 21.67° C 18% - 0 mm 4.92 m/s, 169° - -
1788668497 21.67° C 19% - 0 mm 4.92 m/s, 170° - -
1788668199 21.67° C 19% - 0 mm 5.36 m/s, 167° - -
1788667898 21.67° C 20% - 0 mm 4.47 m/s, 148° - -
1788667600 21.67° C 21% - 0 mm 3.58 m/s, 159° - -
1788667303 21.67° C 22% - 0 mm 3.58 m/s, 160° - -
1788667005 21.67° C 22% - 0 mm 3.13 m/s, 150° - -
1788666708 21.67° C 22% - 0 mm 2.68 m/s, 131° - -
1788666410 22.22° C 22% - 0 mm 3.58 m/s, 146° - -
1788666109 22.22° C 22% - 0 mm 1.79 m/s, 148° - -
1788665811 22.22° C 22% - 0 mm 2.24 m/s, 149° - -
1788665513 22.22° C 22% - 0 mm 3.58 m/s, 134° - -
1788665215 22.22° C 22% - 0 mm 3.13 m/s, 142° - -
1788664918 22.22° C 22% - 0 mm 3.13 m/s, 160° - -
1788664319 22.22° C 21% - 0 mm 2.68 m/s, 160° - -
1788664022 22.22° C 21% - 0 mm 3.13 m/s, 143° - -
1788663724 22.22° C 21% - 0 mm 3.58 m/s, 135° - -
1788663426 22.22° C 21% - 0 mm 3.58 m/s, 139° - -
1788663128 22.22° C 21% - 0 mm 2.68 m/s, 131° - -
1788662831 22.22° C 22% - 0 mm 2.68 m/s, 149° - -
1788662530 22.22° C 22% - 0 mm 3.58 m/s, 156° - -
1788662232 22.78° C 22% - 0 mm 3.58 m/s, 146° - -
1788661934 22.78° C 22% - 0 mm 3.13 m/s, 181° - -
1788661636 22.78° C 23% - 0 mm 4.02 m/s, 165° - -
1788661339 22.78° C 23% - 0 mm 2.68 m/s, 139° - -

* Rain latest hour (hover to see other rain measurements)
** Current wind speed in m/s (hover to see current wind gust speed)